RYR1SM LOWW-EPWA

Flight info

Callsign RYR1SM
Flight time 0h 58m
Altitude 33000
Route KOXER Z649 XENAK M985 NIT DCT MEBAN DCT ORTEB DCT KONZI DCT LOGDA
Aircraft A320/M-SDE3FGHIRWY/LB1

Departure

Time 2026-04-21 20:50
Airport Vienna International Airport (LOWW)

Arrival

Time 2026-04-21 21:48
Airport Warsaw Chopin Airport (EPWA)
Time Latitude Longitude Altitude Speed Heading
2026-04-21 20:25 48.11984 16.55594 610 ft 0 kts 100°
2026-04-21 20:41 48.11988 16.55568 616 ft 4 kts 106°
2026-04-21 20:41 48.11998 16.55531 617 ft 4 kts 129°
2026-04-21 20:41 48.12016 16.55512 620 ft 4 kts 197°
2026-04-21 20:42 48.12024 16.55516 617 ft 0 kts 206°
2026-04-21 20:45 48.12005 16.55503 624 ft 8 kts 206°
2026-04-21 20:45 48.11933 16.55450 621 ft 13 kts 205°
2026-04-21 20:45 48.11835 16.55428 621 ft 15 kts 175°
2026-04-21 20:45 48.11770 16.55555 620 ft 17 kts 115°
2026-04-21 20:46 48.11714 16.55727 616 ft 20 kts 116°
2026-04-21 20:46 48.11650 16.55921 614 ft 22 kts 115°
2026-04-21 20:46 48.11581 16.56138 611 ft 24 kts 116°
2026-04-21 20:46 48.11504 16.56374 609 ft 26 kts 116°
2026-04-21 20:47 48.11420 16.56631 617 ft 28 kts 116°
2026-04-21 20:47 48.11351 16.56843 620 ft 21 kts 116°
2026-04-21 20:47 48.11283 16.57052 609 ft 23 kts 116°
2026-04-21 20:47 48.11225 16.57221 619 ft 11 kts 133°
2026-04-21 20:48 48.11153 16.57213 612 ft 12 kts 211°
2026-04-21 20:48 48.11074 16.57154 616 ft 10 kts 206°
2026-04-21 20:48 48.11060 16.57085 609 ft 8 kts 292°
2026-04-21 20:48 48.11064 16.57074 609 ft 0 kts 298°
2026-04-21 20:49 48.11070 16.57056 618 ft 12 kts 298°
2026-04-21 20:49 48.11219 16.56602 621 ft 82 kts 296°
2026-04-21 20:49 48.11551 16.55580 617 ft 134 kts 296°
2026-04-21 20:49 48.12014 16.54158 761 ft 159 kts 297°
2026-04-21 20:50 48.12296 16.52569 1324 ft 165 kts 263°
2026-04-21 20:50 48.11697 16.51119 1898 ft 171 kts 218°
2026-04-21 20:50 48.10713 16.50087 2388 ft 177 kts 214°
2026-04-21 20:50 48.09629 16.48996 2628 ft 199 kts 214°
2026-04-21 20:51 48.08411 16.47789 2897 ft 222 kts 207°
2026-04-21 20:51 48.06851 16.47240 3174 ft 243 kts 172°
2026-04-21 20:51 48.05250 16.48153 3563 ft 256 kts 135°
2026-04-21 20:51 48.04324 16.50380 4245 ft 255 kts 98°
2026-04-21 20:52 48.04427 16.52982 5120 ft 253 kts 70°
2026-04-21 20:52 48.04961 16.55508 5996 ft 257 kts 72°
2026-04-21 20:52 48.05402 16.58124 6848 ft 262 kts 75°
2026-04-21 20:52 48.05808 16.60800 7654 ft 266 kts 75°
2026-04-21 20:53 48.06207 16.63490 8451 ft 270 kts 75°
2026-04-21 20:53 48.06623 16.66258 9250 ft 275 kts 75°
2026-04-21 20:53 48.07055 16.69061 10035 ft 279 kts 75°
2026-04-21 20:53 48.07509 16.71955 10503 ft 295 kts 75°
2026-04-21 20:54 48.08001 16.75035 10686 ft 318 kts 75°
2026-04-21 20:54 48.08537 16.78361 10831 ft 340 kts 75°
2026-04-21 20:54 48.09101 16.81871 11266 ft 351 kts 75°
2026-04-21 20:54 48.09672 16.85441 11889 ft 356 kts 75°
2026-04-21 20:55 48.10249 16.89068 12524 ft 360 kts 75°
2026-04-21 20:55 48.10830 16.92726 13148 ft 364 kts 75°
2026-04-21 20:55 48.11418 16.96438 13794 ft 368 kts 75°
2026-04-21 20:55 48.12013 17.00192 14376 ft 372 kts 75°
2026-04-21 20:56 48.12535 17.04001 14941 ft 376 kts 81°
2026-04-21 20:56 48.12660 17.07883 15507 ft 381 kts 91°
2026-04-21 20:56 48.12650 17.11850 16075 ft 382 kts 82°
2026-04-21 20:56 48.13214 17.15740 16649 ft 384 kts 74°
2026-04-21 20:57 48.13900 17.19618 17245 ft 387 kts 73°
2026-04-21 20:57 48.14604 17.23527 17852 ft 390 kts 73°
2026-04-21 20:57 48.15319 17.27460 18468 ft 393 kts 73°
2026-04-21 20:57 48.16044 17.31431 19004 ft 397 kts 73°
2026-04-21 20:58 48.16773 17.35434 19527 ft 400 kts 73°
2026-04-21 20:58 48.17257 17.38107 19872 ft 403 kts 73°
2026-04-21 20:58 48.17988 17.42174 20389 ft 406 kts 73°
2026-04-21 20:58 48.18722 17.46277 20881 ft 409 kts 73°
2026-04-21 20:59 48.19460 17.50414 21352 ft 413 kts 73°
2026-04-21 20:59 48.20204 17.54585 21802 ft 416 kts 73°
2026-04-21 20:59 48.20953 17.58789 22234 ft 419 kts 74°
2026-04-21 20:59 48.21705 17.63027 22663 ft 422 kts 74°
2026-04-21 21:00 48.22458 17.67289 23076 ft 425 kts 74°
2026-04-21 21:00 48.23218 17.71586 23487 ft 428 kts 74°
2026-04-21 21:00 48.23984 17.75912 23854 ft 430 kts 74°
2026-04-21 21:00 48.24749 17.80263 24189 ft 433 kts 74°
2026-04-21 21:01 48.25515 17.84642 24523 ft 435 kts 74°
2026-04-21 21:01 48.26284 17.89047 24850 ft 437 kts 74°
2026-04-21 21:01 48.27052 17.93470 25182 ft 439 kts 74°
2026-04-21 21:01 48.27859 17.97906 25503 ft 441 kts 70°
2026-04-21 21:02 48.29028 18.02165 25834 ft 442 kts 61°
2026-04-21 21:02 48.30620 18.06107 26164 ft 442 kts 52°
2026-04-21 21:02 48.32593 18.09647 26491 ft 442 kts 44°
2026-04-21 21:02 48.34866 18.12771 26811 ft 444 kts 40°
2026-04-21 21:03 48.37157 18.15806 27142 ft 445 kts 40°
2026-04-21 21:03 48.39472 18.18888 27609 ft 444 kts 40°
2026-04-21 21:03 48.41779 18.21968 28072 ft 443 kts 40°
2026-04-21 21:03 48.44078 18.25040 28559 ft 441 kts 40°
2026-04-21 21:04 48.46369 18.28108 29034 ft 440 kts 40°
2026-04-21 21:04 48.48654 18.31175 29510 ft 439 kts 40°
2026-04-21 21:04 48.50931 18.34239 29997 ft 438 kts 40°
2026-04-21 21:04 48.53203 18.37302 30447 ft 437 kts 40°
2026-04-21 21:05 48.55469 18.40361 30839 ft 437 kts 40°
2026-04-21 21:05 48.57732 18.43411 31232 ft 436 kts 40°
2026-04-21 21:05 48.59996 18.46459 31625 ft 436 kts 40°
2026-04-21 21:05 48.62258 18.49504 32013 ft 436 kts 40°
2026-04-21 21:06 48.64519 18.52553 32407 ft 435 kts 40°
2026-04-21 21:06 48.66775 18.55604 32805 ft 435 kts 40°
2026-04-21 21:06 48.69031 18.58663 33123 ft 436 kts 40°
2026-04-21 21:06 48.71305 18.61747 33192 ft 441 kts 40°
2026-04-21 21:07 48.75925 18.68033 33194 ft 450 kts 40°
2026-04-21 21:07 48.80585 18.74393 33194 ft 450 kts 40°
2026-04-21 21:08 48.85242 18.80753 33187 ft 450 kts 41°
2026-04-21 21:08 48.89885 18.87117 33201 ft 449 kts 41°
2026-04-21 21:09 48.94493 18.93454 33204 ft 449 kts 41°
2026-04-21 21:09 48.99127 18.99841 33206 ft 449 kts 41°
2026-04-21 21:10 49.03754 19.06230 33208 ft 449 kts 41°
2026-04-21 21:10 49.08379 19.12626 33210 ft 448 kts 41°
2026-04-21 21:11 49.12988 19.19027 33212 ft 448 kts 41°
2026-04-21 21:11 49.17593 19.25433 33208 ft 447 kts 41°
2026-04-21 21:12 49.22184 19.31842 33206 ft 447 kts 41°
2026-04-21 21:12 49.26770 19.38260 33201 ft 446 kts 41°
2026-04-21 21:13 49.31353 19.44691 33201 ft 446 kts 41°
2026-04-21 21:13 49.35921 19.51123 33203 ft 445 kts 42°
2026-04-21 21:14 49.40452 19.57518 33196 ft 445 kts 42°
2026-04-21 21:14 49.44998 19.63956 33177 ft 444 kts 42°
2026-04-21 21:15 49.49558 19.70372 33185 ft 444 kts 41°
2026-04-21 21:15 49.54129 19.76766 33186 ft 444 kts 41°
2026-04-21 21:16 49.58692 19.83183 33181 ft 444 kts 41°
2026-04-21 21:16 49.63248 19.89612 33191 ft 444 kts 41°
2026-04-21 21:17 49.67153 19.95135 33181 ft 444 kts 41°
2026-04-21 21:17 49.71701 20.01587 33192 ft 444 kts 41°
2026-04-21 21:18 49.76236 20.08050 33177 ft 444 kts 42°
2026-04-21 21:18 49.80774 20.14527 33176 ft 443 kts 42°
2026-04-21 21:19 49.85277 20.20963 33187 ft 443 kts 42°
2026-04-21 21:19 49.89801 20.27445 33173 ft 443 kts 41°
2026-04-21 21:20 49.94322 20.33940 33182 ft 443 kts 42°
2026-04-21 21:20 49.98832 20.40443 33168 ft 442 kts 42°
2026-04-21 21:21 50.03332 20.46955 33177 ft 442 kts 42°
2026-04-21 21:21 50.07996 20.53145 33175 ft 440 kts 32°
2026-04-21 21:22 50.13573 20.56894 33168 ft 438 kts 13°
2026-04-21 21:22 50.19625 20.57922 33163 ft 438 kts
2026-04-21 21:23 50.25715 20.58552 33156 ft 438 kts
2026-04-21 21:23 50.31803 20.59195 33155 ft 438 kts
2026-04-21 21:24 50.37883 20.59831 33155 ft 438 kts
2026-04-21 21:24 50.43921 20.60454 33161 ft 438 kts
2026-04-21 21:25 50.50008 20.61091 33153 ft 438 kts
2026-04-21 21:25 50.56092 20.61725 33161 ft 438 kts
2026-04-21 21:26 50.62172 20.62355 33159 ft 437 kts
2026-04-21 21:26 50.68212 20.62990 33004 ft 438 kts
2026-04-21 21:27 50.71252 20.63309 32727 ft 437 kts
2026-04-21 21:27 50.74292 20.63628 31821 ft 440 kts
2026-04-21 21:27 50.77355 20.63951 30978 ft 440 kts
2026-04-21 21:27 50.80413 20.64274 29984 ft 442 kts
2026-04-21 21:28 50.83487 20.64600 28881 ft 443 kts
2026-04-21 21:28 50.86557 20.64928 27910 ft 441 kts
2026-04-21 21:28 50.92684 20.65578 25650 ft 443 kts
2026-04-21 21:29 50.95743 20.65900 24983 ft 435 kts
2026-04-21 21:29 50.98736 20.66216 24264 ft 428 kts
2026-04-21 21:29 51.01690 20.66531 23508 ft 423 kts
2026-04-21 21:29 51.04608 20.66841 22751 ft 417 kts
2026-04-21 21:30 51.07479 20.67145 22056 ft 410 kts
2026-04-21 21:30 51.10305 20.67439 21367 ft 404 kts
2026-04-21 21:30 51.13089 20.67732 20695 ft 398 kts
2026-04-21 21:30 51.15843 20.68025 20019 ft 394 kts
2026-04-21 21:31 51.18549 20.68315 19621 ft 384 kts
2026-04-21 21:31 51.21164 20.68595 19492 ft 369 kts
2026-04-21 21:31 51.23683 20.68864 19364 ft 357 kts
2026-04-21 21:31 51.26124 20.69126 19143 ft 347 kts
2026-04-21 21:32 51.28492 20.69555 18852 ft 339 kts 13°
2026-04-21 21:32 51.30742 20.70616 18611 ft 337 kts 20°
2026-04-21 21:32 51.32958 20.71811 18382 ft 336 kts 19°
2026-04-21 21:32 51.35143 20.72976 18032 ft 334 kts 19°
2026-04-21 21:33 51.37342 20.74145 17662 ft 332 kts 19°
2026-04-21 21:33 51.39533 20.75313 17314 ft 331 kts 19°
2026-04-21 21:33 51.41706 20.76475 16961 ft 329 kts 19°
2026-04-21 21:33 51.43872 20.77636 16594 ft 328 kts 19°
2026-04-21 21:34 51.46040 20.78802 15753 ft 328 kts 19°
2026-04-21 21:34 51.48189 20.79958 14896 ft 323 kts 19°
2026-04-21 21:34 51.50255 20.81070 14275 ft 323 kts 19°
2026-04-21 21:36 51.51892 20.81960 13883 ft 322 kts 19°
2026-04-21 21:36 51.54006 20.83100 13392 ft 319 kts 19°
2026-04-21 21:36 51.56099 20.84226 12925 ft 316 kts 19°
2026-04-21 21:36 51.58174 20.85343 12464 ft 313 kts 19°
2026-04-21 21:37 51.60233 20.86454 12009 ft 310 kts 19°
2026-04-21 21:37 51.62272 20.87556 11552 ft 308 kts 19°
2026-04-21 21:37 51.64293 20.88653 11104 ft 306 kts 19°
2026-04-21 21:37 51.66304 20.89748 10656 ft 304 kts 19°
2026-04-21 21:38 51.68282 20.90825 10468 ft 294 kts 19°
2026-04-21 21:38 51.70168 20.91840 10334 ft 283 kts 19°
2026-04-21 21:38 51.72010 20.92810 10196 ft 274 kts 19°
2026-04-21 21:38 51.73802 20.93743 10004 ft 267 kts 19°
2026-04-21 21:39 51.75584 20.94672 9609 ft 272 kts 19°
2026-04-21 21:39 51.77044 20.95587 9347 ft 269 kts 27°
2026-04-21 21:39 51.78592 20.97308 8867 ft 271 kts 43°
2026-04-21 21:39 51.79882 20.99496 8583 ft 268 kts 46°
2026-04-21 21:40 51.81153 21.01687 8207 ft 267 kts 46°
2026-04-21 21:40 51.82425 21.03873 7851 ft 266 kts 45°
2026-04-21 21:40 51.83694 21.06054 7507 ft 265 kts 45°
2026-04-21 21:40 51.84957 21.08223 7155 ft 263 kts 45°
2026-04-21 21:41 51.86207 21.10369 6550 ft 261 kts 45°
2026-04-21 21:41 51.87435 21.12483 5906 ft 260 kts 46°
2026-04-21 21:41 51.88666 21.14606 5319 ft 257 kts 46°
2026-04-21 21:41 51.90041 21.16403 4729 ft 253 kts 26°
2026-04-21 21:42 51.91722 21.17150 4171 ft 250 kts
2026-04-21 21:42 51.93374 21.16750 4050 ft 232 kts 342°
2026-04-21 21:42 51.94776 21.15647 3789 ft 220 kts 334°
2026-04-21 21:42 51.96159 21.14453 3162 ft 224 kts 335°
2026-04-21 21:43 51.97490 21.13302 3021 ft 208 kts 335°
2026-04-21 21:43 51.98725 21.12233 3008 ft 201 kts 335°
2026-04-21 21:43 51.99963 21.11163 3012 ft 201 kts 335°
2026-04-21 21:43 52.01172 21.10114 3001 ft 190 kts 335°
2026-04-21 21:44 52.02314 21.09124 3041 ft 184 kts 335°
2026-04-21 21:44 52.03421 21.08164 3003 ft 182 kts 335°
2026-04-21 21:44 52.04534 21.07199 2842 ft 180 kts 335°
2026-04-21 21:44 52.05634 21.06244 2621 ft 179 kts 335°
2026-04-21 21:45 52.06728 21.05293 2387 ft 178 kts 335°
2026-04-21 21:45 52.07820 21.04344 2146 ft 177 kts 335°
2026-04-21 21:45 52.08901 21.03404 1908 ft 176 kts 335°
2026-04-21 21:45 52.09975 21.02469 1661 ft 175 kts 335°
2026-04-21 21:46 52.11016 21.01561 1411 ft 162 kts 335°
2026-04-21 21:46 52.11952 21.00744 1204 ft 144 kts 334°
2026-04-21 21:46 52.12811 20.99995 996 ft 137 kts 333°
2026-04-21 21:46 52.13640 20.99273 808 ft 134 kts 333°
2026-04-21 21:47 52.14465 20.98564 621 ft 133 kts 333°
2026-04-21 21:47 52.15002 20.98094 488 ft 132 kts 332°
2026-04-21 21:47 52.15808 20.97378 356 ft 129 kts 333°
2026-04-21 21:47 52.16477 20.96795 347 ft 85 kts 332°
2026-04-21 21:48 52.16851 20.96469 351 ft 42 kts 332°
2026-04-21 21:48 52.17067 20.96287 340 ft 26 kts 341°
2026-04-21 21:48 52.17243 20.96243 348 ft 20 kts
2026-04-21 21:48 52.17324 20.96244 346 ft 11 kts
2026-04-21 21:49 52.17370 20.96254 348 ft 2 kts 21°
2026-04-21 21:49 52.17383 20.96267 348 ft 5 kts 36°
2026-04-21 21:50 52.17403 20.96316 351 ft 6 kts 60°
2026-04-21 21:50 52.17426 20.96386 354 ft 8 kts 62°
2026-04-21 21:50 52.17460 20.96490 353 ft 12 kts 62°
2026-04-21 21:50 52.17515 20.96608 351 ft 14 kts 53°
2026-04-21 21:51 52.17572 20.96761 350 ft 17 kts 59°
2026-04-21 21:51 52.17616 20.96876 357 ft 7 kts 58°
2026-04-21 21:51 52.17620 20.96922 350 ft 3 kts 99°
2026-04-21 21:51 52.17592 20.96973 353 ft 9 kts 148°
2026-04-21 21:52 52.17562 20.97000 353 ft 5 kts 152°
2026-04-21 21:52 52.17551 20.97009 352 ft 2 kts 151°
2026-04-21 21:52 52.17531 20.97001 355 ft 4 kts 230°
2026-04-21 21:52 52.17511 20.96943 353 ft 4 kts 243°
2026-04-21 21:53 52.17508 20.96934 354 ft 0 kts 243°